DAL1378 KSAN-KLAX

Flight info

Callsign DAL1378
Flight time 0h 25m
Altitude 10000
Route CWARD2 SLI
Aircraft A319/M-SDE3FGHIRWY/LB1

Departure

Time 2026-04-20 02:05
Airport San Diego International Airport (KSAN)

Arrival

Time 2026-04-20 02:31
Airport Los Angeles International Airport (KLAX)
Time Latitude Longitude Altitude Speed Heading
2026-04-20 01:34 32.73337 -117.20347 21 ft 0 kts 266°
2026-04-20 01:41 32.73340 -117.20319 21 ft 4 kts 262°
2026-04-20 01:41 32.73342 -117.20287 22 ft 4 kts 278°
2026-04-20 01:42 32.73335 -117.20269 21 ft 1 kts 345°
2026-04-20 01:42 32.73331 -117.20267 26 ft 0 kts 345°
2026-04-20 01:44 32.73332 -117.20268 21 ft 0 kts 345°
2026-04-20 01:44 32.73339 -117.20270 22 ft 2 kts 343°
2026-04-20 01:45 32.73352 -117.20275 24 ft 3 kts 344°
2026-04-20 01:45 32.73378 -117.20280 21 ft 3 kts 356°
2026-04-20 01:45 32.73408 -117.20273 21 ft 5 kts 16°
2026-04-20 01:45 32.73414 -117.20271 21 ft 0 kts 17°
2026-04-20 01:46 32.73418 -117.20269 21 ft 2 kts 17°
2026-04-20 01:46 32.73426 -117.20267 21 ft 0 kts 17°
2026-04-20 01:47 32.73431 -117.20265 22 ft 2 kts 17°
2026-04-20 01:47 32.73446 -117.20260 21 ft 3 kts 17°
2026-04-20 01:47 32.73447 -117.20259 21 ft 0 kts 17°
2026-04-20 01:47 32.73449 -117.20259 21 ft 0 kts 17°
2026-04-20 01:57 32.73449 -117.20258 21 ft 0 kts 17°
2026-04-20 01:57 32.73484 -117.20246 22 ft 14 kts 17°
2026-04-20 01:57 32.73538 -117.20162 23 ft 15 kts 90°
2026-04-20 01:58 32.73510 -117.20022 23 ft 21 kts 106°
2026-04-20 01:58 32.73463 -117.19829 24 ft 26 kts 106°
2026-04-20 01:58 32.73412 -117.19621 24 ft 26 kts 106°
2026-04-20 01:58 32.73361 -117.19409 23 ft 27 kts 106°
2026-04-20 01:59 32.73307 -117.19182 21 ft 28 kts 106°
2026-04-20 01:59 32.73257 -117.18978 25 ft 26 kts 106°
2026-04-20 01:59 32.73206 -117.18770 31 ft 26 kts 106°
2026-04-20 01:59 32.73154 -117.18555 20 ft 28 kts 106°
2026-04-20 02:00 32.73098 -117.18325 21 ft 29 kts 106°
2026-04-20 02:00 32.73044 -117.18101 18 ft 28 kts 107°
2026-04-20 02:00 32.72991 -117.17882 15 ft 23 kts 105°
2026-04-20 02:00 32.72953 -117.17725 16 ft 15 kts 102°
2026-04-20 02:01 32.72953 -117.17667 15 ft 0 kts 76°
2026-04-20 02:04 32.72954 -117.17663 16 ft 3 kts 76°
2026-04-20 02:04 32.72972 -117.17591 20 ft 15 kts 67°
2026-04-20 02:04 32.73033 -117.17625 18 ft 13 kts 275°
2026-04-20 02:04 32.73061 -117.17749 18 ft 28 kts 286°
2026-04-20 02:05 32.73202 -117.18336 20 ft 115 kts 286°
2026-04-20 02:05 32.73476 -117.19478 270 ft 157 kts 286°
2026-04-20 02:05 32.73848 -117.20740 1040 ft 164 kts 295°
2026-04-20 02:05 32.74429 -117.21902 1908 ft 165 kts 302°
2026-04-20 02:06 32.75100 -117.23107 2455 ft 186 kts 302°
2026-04-20 02:06 32.75869 -117.24476 2946 ft 212 kts 303°
2026-04-20 02:06 32.76728 -117.26020 3539 ft 236 kts 302°
2026-04-20 02:06 32.77677 -117.27741 4158 ft 261 kts 301°
2026-04-20 02:07 32.78698 -117.29603 5021 ft 275 kts 301°
2026-04-20 02:07 32.79759 -117.31545 5697 ft 284 kts 301°
2026-04-20 02:07 32.80902 -117.33471 5926 ft 286 kts 304°
2026-04-20 02:07 32.82111 -117.35353 6000 ft 286 kts 306°
2026-04-20 02:08 32.83342 -117.37215 6009 ft 287 kts 306°
2026-04-20 02:08 32.84579 -117.39078 6008 ft 287 kts 306°
2026-04-20 02:08 32.85821 -117.40956 6287 ft 294 kts 306°
2026-04-20 02:08 32.87078 -117.42874 7400 ft 293 kts 306°
2026-04-20 02:09 32.88326 -117.44799 8519 ft 295 kts 306°
2026-04-20 02:09 32.89585 -117.46749 9458 ft 300 kts 306°
2026-04-20 02:09 32.90858 -117.48727 9819 ft 302 kts 306°
2026-04-20 02:09 32.92132 -117.50711 9957 ft 302 kts 306°
2026-04-20 02:10 32.93406 -117.52699 9993 ft 302 kts 306°
2026-04-20 02:10 32.94663 -117.54661 9998 ft 301 kts 306°
2026-04-20 02:10 32.95935 -117.56639 9991 ft 301 kts 306°
2026-04-20 02:10 32.97208 -117.58620 9991 ft 301 kts 306°
2026-04-20 02:11 32.98493 -117.60627 9984 ft 301 kts 306°
2026-04-20 02:11 32.99762 -117.62610 9985 ft 301 kts 306°
2026-04-20 02:11 33.01030 -117.64597 9984 ft 301 kts 306°
2026-04-20 02:11 33.02297 -117.66581 9985 ft 301 kts 306°
2026-04-20 02:12 33.03563 -117.68563 9990 ft 301 kts 306°
2026-04-20 02:12 33.04832 -117.70550 9991 ft 301 kts 306°
2026-04-20 02:12 33.06100 -117.72502 9987 ft 301 kts 309°
2026-04-20 02:12 33.07626 -117.74226 9988 ft 302 kts 319°
2026-04-20 02:13 33.09231 -117.75845 9989 ft 302 kts 319°
2026-04-20 02:13 33.10833 -117.77468 9989 ft 302 kts 318°
2026-04-20 02:13 33.12436 -117.79096 9989 ft 302 kts 318°
2026-04-20 02:13 33.14035 -117.80724 9989 ft 302 kts 318°
2026-04-20 02:14 33.15632 -117.82354 9991 ft 302 kts 318°
2026-04-20 02:14 33.17234 -117.83989 9990 ft 302 kts 318°
2026-04-20 02:14 33.18906 -117.85507 9970 ft 304 kts 328°
2026-04-20 02:14 33.20829 -117.86536 9820 ft 301 kts 343°
2026-04-20 02:15 33.22840 -117.87069 9569 ft 291 kts 349°
2026-04-20 02:15 33.24805 -117.87546 9322 ft 287 kts 348°
2026-04-20 02:15 33.26755 -117.88027 9068 ft 285 kts 348°
2026-04-20 02:15 33.28696 -117.88509 8817 ft 285 kts 347°
2026-04-20 02:16 33.30638 -117.88996 8568 ft 286 kts 347°
2026-04-20 02:16 33.32593 -117.89486 8312 ft 288 kts 346°
2026-04-20 02:16 33.34562 -117.89979 8064 ft 290 kts 347°
2026-04-20 02:16 33.36542 -117.90472 7813 ft 291 kts 347°
2026-04-20 02:17 33.38524 -117.90981 7562 ft 291 kts 344°
2026-04-20 02:17 33.40458 -117.91680 7312 ft 290 kts 342°
2026-04-20 02:17 33.42388 -117.92378 7086 ft 289 kts 342°
2026-04-20 02:17 33.44312 -117.93073 6994 ft 288 kts 342°
2026-04-20 02:18 33.46232 -117.93770 7012 ft 289 kts 342°
2026-04-20 02:18 33.48152 -117.94472 7005 ft 289 kts 342°
2026-04-20 02:18 33.50076 -117.95174 7008 ft 289 kts 342°
2026-04-20 02:18 33.51998 -117.95871 7011 ft 288 kts 342°
2026-04-20 02:19 33.53921 -117.96568 7000 ft 289 kts 342°
2026-04-20 02:19 33.55842 -117.97266 6996 ft 289 kts 342°
2026-04-20 02:19 33.57765 -117.97964 6999 ft 289 kts 342°
2026-04-20 02:19 33.59037 -117.98425 7002 ft 289 kts 342°
2026-04-20 02:20 33.60962 -117.99124 6998 ft 289 kts 342°
2026-04-20 02:20 33.62878 -117.99821 6997 ft 286 kts 342°
2026-04-20 02:20 33.64768 -118.00512 7001 ft 283 kts 342°
2026-04-20 02:20 33.66653 -118.01203 6988 ft 283 kts 341°
2026-04-20 02:21 33.70334 -118.02549 6977 ft 259 kts 342°
2026-04-20 02:21 33.71999 -118.03154 6910 ft 247 kts 341°
2026-04-20 02:21 33.73628 -118.03750 6625 ft 243 kts 341°
2026-04-20 02:22 33.75244 -118.04337 6321 ft 242 kts 341°
2026-04-20 02:22 33.76849 -118.04922 5939 ft 240 kts 341°
2026-04-20 02:22 33.78442 -118.05505 5567 ft 239 kts 341°
2026-04-20 02:22 33.80037 -118.06096 5195 ft 240 kts 341°
2026-04-20 02:23 33.81636 -118.06694 4824 ft 241 kts 341°
2026-04-20 02:23 33.83237 -118.07294 4471 ft 240 kts 341°
2026-04-20 02:23 33.84809 -118.07881 4223 ft 235 kts 341°
2026-04-20 02:23 33.86365 -118.08461 3970 ft 233 kts 341°
2026-04-20 02:24 33.87912 -118.09037 3721 ft 232 kts 341°
2026-04-20 02:24 33.89455 -118.09613 3600 ft 232 kts 341°
2026-04-20 02:24 33.91030 -118.10058 3503 ft 235 kts 349°
2026-04-20 02:24 33.92644 -118.10340 3249 ft 233 kts 351°
2026-04-20 02:25 33.94241 -118.10606 2996 ft 231 kts 349°
2026-04-20 02:25 33.95681 -118.11373 2748 ft 226 kts 319°
2026-04-20 02:25 33.96725 -118.12758 2614 ft 223 kts 301°
2026-04-20 02:25 33.97372 -118.14434 2595 ft 221 kts 284°
2026-04-20 02:26 33.97591 -118.16249 2598 ft 219 kts 268°
2026-04-20 02:26 33.97440 -118.18074 2598 ft 218 kts 261°
2026-04-20 02:26 33.97262 -118.19881 2600 ft 217 kts 262°
2026-04-20 02:26 33.97083 -118.21685 2604 ft 216 kts 262°
2026-04-20 02:27 33.96904 -118.23468 2606 ft 210 kts 262°
2026-04-20 02:27 33.96735 -118.25158 2518 ft 199 kts 261°
2026-04-20 02:27 33.96572 -118.26772 2309 ft 189 kts 262°
2026-04-20 02:27 33.96418 -118.28303 2076 ft 180 kts 262°
2026-04-20 02:28 33.96268 -118.29786 1855 ft 175 kts 262°
2026-04-20 02:28 33.96125 -118.31195 1625 ft 166 kts 262°
2026-04-20 02:28 33.95989 -118.32537 1404 ft 157 kts 263°
2026-04-20 02:28 33.95862 -118.33786 1208 ft 146 kts 263°
2026-04-20 02:29 33.95745 -118.34936 1021 ft 128 kts 262°
2026-04-20 02:29 33.95642 -118.35955 858 ft 121 kts 262°
2026-04-20 02:29 33.95540 -118.36952 699 ft 119 kts 263°
2026-04-20 02:29 33.95446 -118.37934 540 ft 117 kts 263°
2026-04-20 02:30 33.95349 -118.38915 373 ft 118 kts 262°
2026-04-20 02:30 33.95245 -118.39894 213 ft 118 kts 263°
2026-04-20 02:30 33.95143 -118.40850 126 ft 104 kts 263°
2026-04-20 02:30 33.95085 -118.41429 126 ft 54 kts 263°
2026-04-20 02:31 33.95032 -118.41764 124 ft 34 kts 244°
2026-04-20 02:31 33.94897 -118.41992 125 ft 30 kts 231°
2026-04-20 02:31 33.94774 -118.42183 123 ft 25 kts 233°
2026-04-20 02:31 33.94696 -118.42225 123 ft 13 kts 138°
2026-04-20 02:32 33.94695 -118.42115 124 ft 14 kts 82°
2026-04-20 02:32 33.94708 -118.41999 126 ft 14 kts 83°
2026-04-20 02:32 33.94721 -118.41873 126 ft 16 kts 83°
2026-04-20 02:32 33.94736 -118.41735 126 ft 17 kts 83°
2026-04-20 02:33 33.94726 -118.41591 127 ft 18 kts 126°
2026-04-20 02:33 33.94677 -118.41459 124 ft 19 kts 84°
2026-04-20 02:33 33.94691 -118.41295 123 ft 20 kts 79°
2026-04-20 02:33 33.94728 -118.41124 125 ft 22 kts 75°
2026-04-20 02:34 33.94749 -118.40939 126 ft 23 kts 83°
2026-04-20 02:34 33.94768 -118.40745 127 ft 24 kts 85°
2026-04-20 02:34 33.94787 -118.40540 123 ft 25 kts 83°
2026-04-20 02:34 33.94810 -118.40340 126 ft 16 kts 84°
2026-04-20 02:35 33.94751 -118.40262 126 ft 15 kts 165°
2026-04-20 02:35 33.94652 -118.40250 126 ft 11 kts 200°
2026-04-20 02:35 33.94637 -118.40319 126 ft 3 kts 263°
2026-04-20 02:35 33.94636 -118.40330 126 ft 0 kts 263°